When you browse on this site, cookies collect data to enhance your experience and personalize the content and advertising you see.
Visit our Privacy Policy to learn more. By continuing to use the site, you agree to this use of cookies and data.
  • In Hungary
  • List of Countries
  • For 7 days
  • Water Temperature
  • Weather Map
  • News
  • Weather Widgets
  • user-avatar
    Login

    Hourly Weather Hotin

    Today, 6 December, Friday

    Time Temperature Precipitation Wind Pressure Humidity
    00:00 -1°C° 0 mm 1 mps 750 mmHg 64%
    01:00 -1°C° 0 mm 1 mps 750 mmHg 65%
    02:00 -1°C° 0 mm 1 mps 749 mmHg 66%
    03:00 -1°C° 0 mm 1 mps 749 mmHg 66%
    04:00 -1°C° 0 mm 1 mps 748 mmHg 67%
    05:00 -1°C° 0 mm 1 mps 748 mmHg 68%
    06:00 -1°C° 0 mm 1 mps 748 mmHg 68%
    07:00 -1°C° 0 mm 1 mps 748 mmHg 68%
    08:00 -1°C° 0 mm 1 mps 748 mmHg 68%
    09:00 -2°C° 0 mm 2 mps 748 mmHg 65%
    10:00 -1°C° 0 mm 2 mps 747 mmHg 62%
    11:00 +2°C° 0 mm 2 mps 747 mmHg 59%
    12:00 +2°C° 0 mm 2 mps 747 mmHg 59%
    13:00 +3°C° 0 mm 2 mps 746 mmHg 59%
    14:00 +4°C° 0 mm 1 mps 746 mmHg 59%
    15:00 +3°C° 0 mm 1 mps 746 mmHg 63%
    16:00 +2°C° 0 mm 1 mps 745 mmHg 66%
    17:00 0°C° 0 mm 1 mps 745 mmHg 70%
    18:00 0°C° 0 mm 1 mps 745 mmHg 70%
    19:00 0°C° 0 mm 1 mps 745 mmHg 70%
    20:00 0°C° 0 mm 1 mps 745 mmHg 70%
    21:00 0°C° 0 mm 1 mps 745 mmHg 70%
    22:00 0°C° 0 mm 1 mps 745 mmHg 70%
    23:00 -1°C° 0 mm 0 mps 745 mmHg 69%

    Tomorrow, 7 December, Saturday

    Time Temperature Precipitation Wind Pressure Humidity
    00:00 -1°C° 0 mm 0 mps 744 mmHg 69%
    01:00 -1°C° 0 mm 0 mps 744 mmHg 69%
    02:00 -1°C° 0 mm 0 mps 744 mmHg 68%
    03:00 -1°C° 0 mm 0 mps 744 mmHg 69%
    04:00 -2°C° 0 mm 0 mps 743 mmHg 69%
    05:00 -2°C° 0 mm 0 mps 743 mmHg 69%
    06:00 -2°C° 0 mm 0 mps 743 mmHg 69%
    07:00 -2°C° 0 mm 0 mps 743 mmHg 68%
    08:00 -2°C° 0 mm 0 mps 743 mmHg 68%
    09:00 -1°C° 0 mm 0 mps 743 mmHg 64%
    10:00 +1°C° 0 mm 0 mps 743 mmHg 60%
    11:00 +2°C° 0 mm 0 mps 742 mmHg 56%
    12:00 +3°C° 0 mm 1 mps 742 mmHg 57%
    13:00 +4°C° 0 mm 1 mps 742 mmHg 57%
    14:00 +4°C° 0 mm 1 mps 741 mmHg 58%
    15:00 +4°C° 0 mm 1 mps 741 mmHg 62%
    16:00 +3°C° 0 mm 1 mps 741 mmHg 65%
    17:00 +2°C° 0 mm 1 mps 741 mmHg 69%
    18:00 +2°C° 0 mm 1 mps 742 mmHg 71%
    19:00 +2°C° 0 mm 1 mps 742 mmHg 73%
    20:00 +2°C° 0 mm 1 mps 742 mmHg 74%
    21:00 +2°C° 0 mm 1 mps 742 mmHg 76%
    22:00 +2°C° 0 mm 1 mps 742 mmHg 78%
    23:00 +2°C° 0 mm 1 mps 742 mmHg 79%

    Day after tomorrow, 8 December, Sunday

    Time Temperature Precipitation Wind Pressure Humidity
    00:00 +1°C° 0 mm 2 mps 743 mmHg 79%
    01:00 +2°C° 0 mm 2 mps 743 mmHg 79%
    02:00 +2°C° 0 mm 2 mps 743 mmHg 79%
    03:00 +2°C° 0 mm 2 mps 743 mmHg 79%
    04:00 +2°C° 0 mm 2 mps 742 mmHg 80%
    05:00 +2°C° 0 mm 2 mps 742 mmHg 81%
    06:00 +1°C° 0 mm 2 mps 743 mmHg 81%
    07:00 +2°C° 0 mm 1 mps 743 mmHg 81%
    08:00 +2°C° 0 mm 1 mps 743 mmHg 81%
    09:00 +3°C° 0 mm 1 mps 743 mmHg 79%
    10:00 +4°C° 0 mm 1 mps 743 mmHg 77%
    11:00 +5°C° 0 mm 1 mps 743 mmHg 74%
    12:00 +5°C° 0 mm 1 mps 743 mmHg 73%
    13:00 +6°C° 0 mm 1 mps 743 mmHg 72%
    14:00 +5°C° 0 mm 2 mps 743 mmHg 70%
    15:00 +5°C° 0 mm 1 mps 743 mmHg 73%
    16:00 +5°C° 0 mm 1 mps 743 mmHg 76%
    17:00 +4°C° 0 mm 1 mps 743 mmHg 78%
    18:00 +2°C° 0 mm 2 mps 743 mmHg 80%
    19:00 +2°C° 0 mm 2 mps 743 mmHg 81%
    20:00 +2°C° 0 mm 2 mps 743 mmHg 82%
    21:00 +2°C° 0 mm 2 mps 743 mmHg 82%
    22:00 +1°C° 0 mm 3 mps 743 mmHg 82%
    23:00 0°C° 0 mm 3 mps 742 mmHg 82%

    9 December, Monday

    Time Temperature Precipitation Wind Pressure Humidity
    00:00 0°C° 0 mm 3 mps 742 mmHg 82%
    01:00 0°C° 0 mm 3 mps 742 mmHg 82%
    02:00 0°C° 0 mm 3 mps 741 mmHg 82%
    03:00 +1°C° 0 mm 3 mps 741 mmHg 82%
    04:00 +1°C° 0 mm 3 mps 740 mmHg 82%
    05:00 +1°C° 0 mm 3 mps 740 mmHg 82%
    06:00 +1°C° 0 mm 3 mps 740 mmHg 82%
    07:00 +1°C° 0 mm 3 mps 739 mmHg 83%
    08:00 +1°C° 0 mm 3 mps 739 mmHg 83%
    09:00 +2°C° 0 mm 3 mps 739 mmHg 79%
    10:00 +3°C° 0 mm 4 mps 739 mmHg 75%
    11:00 +4°C° 0 mm 4 mps 738 mmHg 70%
    12:00 +5°C° 0 mm 4 mps 738 mmHg 70%
    13:00 +5°C° 0 mm 3 mps 737 mmHg 70%
    14:00 +5°C° 0 mm 3 mps 737 mmHg 69%
    15:00 +5°C° 0 mm 3 mps 737 mmHg 73%
    16:00 +4°C° 0 mm 3 mps 736 mmHg 77%
    17:00 +3°C° 0 mm 3 mps 736 mmHg 81%
    18:00 +3°C° 0 mm 3 mps 736 mmHg 81%
    19:00 +3°C° 0 mm 3 mps 736 mmHg 82%
    20:00 +4°C° 0 mm 2 mps 736 mmHg 82%
    21:00 +4°C° 0 mm 2 mps 736 mmHg 82%
    22:00 +4°C° 0 mm 2 mps 736 mmHg 83%
    23:00 +4°C° 0 mm 2 mps 736 mmHg 83%

    10 December, Tuesday

    Time Temperature Precipitation Wind Pressure Humidity
    00:00 +4°C° 0 mm 2 mps 735 mmHg 83%
    01:00 +4°C° 0 mm 2 mps 735 mmHg 83%
    02:00 +4°C° 0 mm 2 mps 735 mmHg 84%
    03:00 +3°C° 0 mm 2 mps 735 mmHg 84%
    04:00 +2°C° 0 mm 3 mps 735 mmHg 84%
    05:00 +2°C° 0 mm 3 mps 734 mmHg 84%
    06:00 +3°C° 0 mm 2 mps 735 mmHg 84%
    07:00 +3°C° 0 mm 2 mps 735 mmHg 85%
    08:00 +3°C° 0 mm 2 mps 735 mmHg 85%
    09:00 +4°C° 0 mm 2 mps 735 mmHg 82%
    10:00 +6°C° 0 mm 1 mps 736 mmHg 79%
    11:00 +6°C° 0 mm 1 mps 736 mmHg 76%
    12:00 +7°C° 0 mm 1 mps 736 mmHg 75%
    13:00 +7°C° 0 mm 2 mps 737 mmHg 73%
    14:00 +7°C° 0 mm 2 mps 737 mmHg 72%
    15:00 +7°C° 0 mm 2 mps 737 mmHg 76%
    16:00 +6°C° 0 mm 2 mps 738 mmHg 79%
    17:00 +6°C° 0 mm 1 mps 738 mmHg 83%
    18:00 +5°C° 0 mm 2 mps 739 mmHg 83%
    19:00 +4°C° 0 mm 2 mps 740 mmHg 84%
    20:00 +4°C° 0 mm 2 mps 740 mmHg 84%
    21:00 +4°C° 0 mm 2 mps 741 mmHg 85%
    22:00 +2°C° 0 mm 3 mps 742 mmHg 86%
    23:00 +2°C° 0 mm 3 mps 742 mmHg 88%

    11 December, Wednesday

    Time Temperature Precipitation Wind Pressure Humidity
    00:00 +1°C° 0 mm 3 mps 743 mmHg 88%
    01:00 +1°C° 0 mm 3 mps 743 mmHg 89%
    02:00 0°C° 0 mm 3 mps 743 mmHg 90%
    03:00 0°C° 0 mm 3 mps 744 mmHg 91%
    04:00 0°C° 0 mm 3 mps 744 mmHg 92%
    05:00 0°C° 0 mm 3 mps 744 mmHg 92%
    06:00 0°C° 0 mm 3 mps 745 mmHg 92%
    07:00 -1°C° 0 mm 3 mps 745 mmHg 91%
    08:00 -1°C° 0 mm 3 mps 745 mmHg 90%
    09:00 0°C° 0 mm 3 mps 746 mmHg 86%
    10:00 +1°C° 0 mm 3 mps 746 mmHg 81%
    11:00 +2°C° 0 mm 3 mps 746 mmHg 76%
    12:00 +2°C° 0 mm 3 mps 746 mmHg 73%
    13:00 +3°C° 0 mm 2 mps 746 mmHg 70%
    14:00 +4°C° 0 mm 2 mps 746 mmHg 67%
    15:00 +4°C° 0 mm 1 mps 746 mmHg 71%
    16:00 +3°C° 0 mm 1 mps 746 mmHg 74%
    17:00 +2°C° 0 mm 0 mps 746 mmHg 78%
    18:00 +2°C° 0 mm 1 mps 746 mmHg 80%
    19:00 +2°C° 0 mm 1 mps 746 mmHg 82%
    20:00 +1°C° 0 mm 1 mps 746 mmHg 84%
    21:00 +1°C° 0 mm 1 mps 745 mmHg 85%
    22:00 -1°C° 0 mm 2 mps 745 mmHg 87%
    23:00 -1°C° 0 mm 2 mps 745 mmHg 88%
    Show more